Location: Chisholm
(54.9102°N, 114.1701°W)
Time: 08:15:08
(UTC+00:00)

X-37B - Pass Details

Date: 11 December 2021
Orbit: 334 x 337 km, 45.0° (Epoch: 11 January)

Event Time Altitude Azimuth Distance (km) Brightness Sun altitude
Rises 01:49:41 0° 230° (SW) 2,102 5.3 -21.4°
Reaches altitude 10° 01:52:43 10° 193° (SSW) 1,266 3.4 -21.9°
Enters shadow 01:52:52 10° 190° (S) 1,246 3.4 -21.9°
